This is the latest recevied weather packets stored in our database for station/object DW9280. If no packets are shown the sender has not sent any weather packets the latest 10 day(s).
| Time | Temp. | Humidity | Pressure | Rain* | Wind** | Luminosity | Snow |
|---|---|---|---|---|---|---|---|
| 1787732053 | 20° C | 71% | 1016.6 hPa | 0 mm | - | 471 W/m² | - |
| 1787731629 | 20° C | 71% | 1016.6 hPa | 0 mm | - | 439 W/m² | - |
| 1787731329 | 20° C | 72% | 1016.6 hPa | 0 mm | - | 225 W/m² | - |
| 1787731027 | 19.44° C | 73% | 1016.5 hPa | 0 mm | - | 308 W/m² | - |
| 1787730763 | 19.44° C | 74% | 1016.6 hPa | 0 mm | - | 306 W/m² | - |
| 1787730553 | 19.44° C | 75% | 1016.6 hPa | 0 mm | - | 294 W/m² | - |
| 1787730127 | 18.89° C | 76% | 1016.6 hPa | 0 mm | - | 299 W/m² | - |
| 1787729827 | 18.89° C | 77% | 1016.6 hPa | 0 mm | - | 236 W/m² | - |
| 1787729652 | 18.33° C | 77% | 1016.5 hPa | 0 mm | - | 264 W/m² | - |
| 1787729226 | 18.33° C | 78% | 1016.5 hPa | 0 mm | - | 74 W/m² | - |
| 1787728926 | 18.33° C | 78% | 1016.5 hPa | 0 mm | - | 97 W/m² | - |
| 1787728626 | 17.78° C | 79% | 1016.4 hPa | 0 mm | - | 216 W/m² | - |
| 1787728488 | 17.22° C | 79% | 1016.4 hPa | 0 mm | - | 105 W/m² | - |
| 1787728153 | 17.22° C | 80% | 1016.3 hPa | 0 mm | - | 53 W/m² | - |
| 1787727726 | 17.22° C | 81% | 1016.4 hPa | 0 mm | - | 47 W/m² | - |
| 1787727554 | 16.67° C | 81% | 1016.4 hPa | 0 mm | - | 47 W/m² | - |
| 1787727252 | 16.67° C | 82% | 1016.4 hPa | 0 mm | - | 63 W/m² | - |
| 1787726828 | 16.11° C | 82% | 1016.4 hPa | 0 mm | - | 60 W/m² | - |
| 1787726527 | 16.11° C | 83% | 1016.3 hPa | 0 mm | - | 144 W/m² | - |
| 1787726227 | 15.56° C | 83% | 1016.3 hPa | 0 mm | - | 42 W/m² | - |
| 1787726051 | 15.56° C | 84% | 1016.4 hPa | 0 mm | - | 47 W/m² | - |
| 1787725627 | 15.56° C | 85% | 1016.4 hPa | 0 mm | - | 47 W/m² | - |
| 1787725328 | 15° C | 85% | 1016.4 hPa | 0 mm | - | 49 W/m² | - |
| 1787725028 | 15° C | 86% | 1016.4 hPa | 0 mm | - | 46 W/m² | - |
| 1787724726 | 14.44° C | 86% | 1016.4 hPa | 0 mm | - | 40 W/m² | - |
* Rain latest hour (hover to see other rain measurements)
** Current wind speed in m/s (hover to see current wind gust speed)